#datetime,building,power
2023-12-22T00:00:00,mfh,15.83
2023-12-22T00:01:00,mfh,16.37
2023-12-22T00:02:00,mfh,16.07
2023-12-22T00:03:00,mfh,15.39
2023-12-22T00:04:00,mfh,15.39
2023-12-22T00:05:00,mfh,15.48
2023-12-22T00:06:00,mfh,16.02
2023-12-22T00:07:00,mfh,15.99
2023-12-22T00:08:00,mfh,16.57
2023-12-22T00:09:00,mfh,15.94
2023-12-22T00:10:00,mfh,16.15
2023-12-22T00:11:00,mfh,16.61
2023-12-22T00:12:00,mfh,15.37
2023-12-22T00:13:00,mfh,15.31
2023-12-22T00:14:00,mfh,15.22
2023-12-22T00:15:00,mfh,15.15
2023-12-22T00:16:00,mfh,15.96
2023-12-22T00:17:00,mfh,15.78
2023-12-22T00:18:00,mfh,15.93
2023-12-22T00:19:00,mfh,15.94
2023-12-22T00:20:00,mfh,16.02
2023-12-22T00:21:00,mfh,16.02
2023-12-22T00:22:00,mfh,15.14
2023-12-22T00:23:00,mfh,15.17
2023-12-22T00:24:00,mfh,15.25
2023-12-22T00:25:00,mfh,15.86
2023-12-22T00:26:00,mfh,15.87
2023-12-22T00:27:00,mfh,15.75
2023-12-22T00:28:00,mfh,15.77
2023-12-22T00:29:00,mfh,15.69
2023-12-22T00:30:00,mfh,15.55
2023-12-22T00:31:00,mfh,14.90
2023-12-22T00:32:00,mfh,14.84
2023-12-22T00:33:00,mfh,15.03
2023-12-22T00:34:00,mfh,16.24
2023-12-22T00:35:00,mfh,16.59
2023-12-22T00:36:00,mfh,15.59
2023-12-22T00:37:00,mfh,16.01
2023-12-22T00:38:00,mfh,15.53
2023-12-22T00:39:00,mfh,15.62
2023-12-22T00:40:00,mfh,16.10
2023-12-22T00:41:00,mfh,14.97
2023-12-22T00:42:00,mfh,15.08
2023-12-22T00:43:00,mfh,15.20
2023-12-22T00:44:00,mfh,15.56
2023-12-22T00:45:00,mfh,15.58
2023-12-22T00:46:00,mfh,15.94
2023-12-22T00:47:00,mfh,15.60
2023-12-22T00:48:00,mfh,15.74
2023-12-22T00:49:00,mfh,15.77
2023-12-22T00:50:00,mfh,15.61
2023-12-22T00:51:00,mfh,15.14
2023-12-22T00:52:00,mfh,15.08
2023-12-22T00:53:00,mfh,15.63
2023-12-22T00:54:00,mfh,16.97
2023-12-22T00:55:00,mfh,15.86
2023-12-22T00:56:00,mfh,15.83
2023-12-22T00:57:00,mfh,15.62
2023-12-22T00:58:00,mfh,15.68
2023-12-22T00:59:00,mfh,14.82
2023-12-22T01:00:00,mfh,14.80
2023-12-22T01:01:00,mfh,14.75
2023-12-22T01:02:00,mfh,16.10
2023-12-22T01:03:00,mfh,16.15
2023-12-22T01:04:00,mfh,17.19
2023-12-22T01:05:00,mfh,16.23
2023-12-22T01:06:00,mfh,16.40
2023-12-22T01:07:00,mfh,16.94
2023-12-22T01:08:00,mfh,15.00
2023-12-22T01:09:00,mfh,15.00
2023-12-22T01:10:00,mfh,15.45
2023-12-22T01:11:00,mfh,15.56
2023-12-22T01:12:00,mfh,15.63
2023-12-22T01:13:00,mfh,15.57
2023-12-22T01:14:00,mfh,15.78
2023-12-22T01:15:00,mfh,15.59
2023-12-22T01:16:00,mfh,15.68
2023-12-22T01:17:00,mfh,15.71
2023-12-22T01:18:00,mfh,14.98
2023-12-22T01:19:00,mfh,15.43
2023-12-22T01:20:00,mfh,15.02
2023-12-22T01:21:00,mfh,15.69
2023-12-22T01:22:00,mfh,15.44
2023-12-22T01:23:00,mfh,15.40
2023-12-22T01:24:00,mfh,13.52
2023-12-22T01:25:00,mfh,13.51
2023-12-22T01:26:00,mfh,13.48
2023-12-22T01:27:00,mfh,13.30
2023-12-22T01:28:00,mfh,13.39
2023-12-22T01:29:00,mfh,12.93
2023-12-22T01:30:00,mfh,13.55
2023-12-22T01:31:00,mfh,14.03
2023-12-22T01:32:00,mfh,13.48
2023-12-22T01:33:00,mfh,13.46
2023-12-22T01:34:00,mfh,13.86
2023-12-22T01:35:00,mfh,14.01
2023-12-22T01:36:00,mfh,14.06
2023-12-22T01:37:00,mfh,14.13
2023-12-22T01:38:00,mfh,12.99
2023-12-22T01:39:00,mfh,13.62
2023-12-22T01:40:00,mfh,14.11
2023-12-22T01:41:00,mfh,13.73
2023-12-22T01:42:00,mfh,14.34
2023-12-22T01:43:00,mfh,13.96
2023-12-22T01:44:00,mfh,13.98
2023-12-22T01:45:00,mfh,13.21
2023-12-22T01:46:00,mfh,13.84
2023-12-22T01:47:00,mfh,13.65
2023-12-22T01:48:00,mfh,13.64
2023-12-22T01:49:00,mfh,13.46
2023-12-22T01:50:00,mfh,13.43
2023-12-22T01:51:00,mfh,14.50
2023-12-22T01:52:00,mfh,13.59
2023-12-22T01:53:00,mfh,21.04
2023-12-22T01:54:00,mfh,14.82
2023-12-22T01:55:00,mfh,14.96
2023-12-22T01:56:00,mfh,15.01
2023-12-22T01:57:00,mfh,15.72
2023-12-22T01:58:00,mfh,15.79
2023-12-22T01:59:00,mfh,16.39
2023-12-22T02:00:00,mfh,15.93
2023-12-22T02:01:00,mfh,15.92
2023-12-22T02:02:00,mfh,15.67
2023-12-22T02:03:00,mfh,14.98
2023-12-22T02:04:00,mfh,15.00
2023-12-22T02:05:00,mfh,14.94
2023-12-22T02:06:00,mfh,15.60
2023-12-22T02:07:00,mfh,15.62
2023-12-22T02:08:00,mfh,15.72
2023-12-22T02:09:00,mfh,15.78
2023-12-22T02:10:00,mfh,16.50
2023-12-22T02:11:00,mfh,15.89
2023-12-22T02:12:00,mfh,15.89
2023-12-22T02:13:00,mfh,16.02
2023-12-22T02:14:00,mfh,15.88
2023-12-22T02:15:00,mfh,14.89
2023-12-22T02:16:00,mfh,14.95
2023-12-22T02:17:00,mfh,15.68
2023-12-22T02:18:00,mfh,15.64
2023-12-22T02:19:00,mfh,16.17
2023-12-22T02:20:00,mfh,16.47
2023-12-22T02:21:00,mfh,16.11
2023-12-22T02:22:00,mfh,16.18
2023-12-22T02:23:00,mfh,15.16
2023-12-22T02:24:00,mfh,14.95
2023-12-22T02:25:00,mfh,14.86
2023-12-22T02:26:00,mfh,15.65
2023-12-22T02:27:00,mfh,16.21
2023-12-22T02:28:00,mfh,16.15
2023-12-22T02:29:00,mfh,16.11
2023-12-22T02:30:00,mfh,15.60
2023-12-22T02:31:00,mfh,15.63
2023-12-22T02:32:00,mfh,15.32
2023-12-22T02:33:00,mfh,15.22
2023-12-22T02:34:00,mfh,15.26
2023-12-22T02:35:00,mfh,15.94
2023-12-22T02:36:00,mfh,15.87
2023-12-22T02:37:00,mfh,16.74
2023-12-22T02:38:00,mfh,15.85
2023-12-22T02:39:00,mfh,15.98
2023-12-22T02:40:00,mfh,16.01
2023-12-22T02:41:00,mfh,15.19
2023-12-22T02:42:00,mfh,15.33
2023-12-22T02:43:00,mfh,15.38
2023-12-22T02:44:00,mfh,16.15
2023-12-22T02:45:00,mfh,15.79
2023-12-22T02:46:00,mfh,16.32
2023-12-22T02:47:00,mfh,16.09
2023-12-22T02:48:00,mfh,15.99
2023-12-22T02:49:00,mfh,15.95
2023-12-22T02:50:00,mfh,15.22
2023-12-22T02:51:00,mfh,15.20
2023-12-22T02:52:00,mfh,15.37
2023-12-22T02:53:00,mfh,15.97
2023-12-22T02:54:00,mfh,15.94
2023-12-22T02:55:00,mfh,15.84
2023-12-22T02:56:00,mfh,15.90
2023-12-22T02:57:00,mfh,16.05
2023-12-22T02:58:00,mfh,16.07
2023-12-22T02:59:00,mfh,15.46
2023-12-22T03:00:00,mfh,15.46
2023-12-22T03:01:00,mfh,15.31
2023-12-22T03:02:00,mfh,16.44
2023-12-22T03:03:00,mfh,16.20
2023-12-22T03:04:00,mfh,16.20
2023-12-22T03:05:00,mfh,16.41
2023-12-22T03:06:00,mfh,16.47
2023-12-22T03:07:00,mfh,16.90
2023-12-22T03:08:00,mfh,16.62
2023-12-22T03:09:00,mfh,16.11
2023-12-22T03:10:00,mfh,15.49
2023-12-22T03:11:00,mfh,15.36
2023-12-22T03:12:00,mfh,16.43
2023-12-22T03:13:00,mfh,16.46
2023-12-22T03:14:00,mfh,16.36
2023-12-22T03:15:00,mfh,16.34
2023-12-22T03:16:00,mfh,15.81
2023-12-22T03:17:00,mfh,15.79
2023-12-22T03:18:00,mfh,15.99
2023-12-22T03:19:00,mfh,15.19
2023-12-22T03:20:00,mfh,15.08
2023-12-22T03:21:00,mfh,15.05
2023-12-22T03:22:00,mfh,15.92
2023-12-22T03:23:00,mfh,16.47
2023-12-22T03:24:00,mfh,15.91
2023-12-22T03:25:00,mfh,17.54
2023-12-22T03:26:00,mfh,18.04
2023-12-22T03:27:00,mfh,18.71
2023-12-22T03:28:00,mfh,17.98
2023-12-22T03:29:00,mfh,18.03
2023-12-22T03:30:00,mfh,17.55
2023-12-22T03:31:00,mfh,16.84
2023-12-22T03:32:00,mfh,16.00
2023-12-22T03:33:00,mfh,15.84
2023-12-22T03:34:00,mfh,16.33
2023-12-22T03:35:00,mfh,16.14
2023-12-22T03:36:00,mfh,16.63
2023-12-22T03:37:00,mfh,15.74
2023-12-22T03:38:00,mfh,15.00
2023-12-22T03:39:00,mfh,15.15
2023-12-22T03:40:00,mfh,15.94
2023-12-22T03:41:00,mfh,15.81
2023-12-22T03:42:00,mfh,15.61
2023-12-22T03:43:00,mfh,15.49
2023-12-22T03:44:00,mfh,15.57
2023-12-22T03:45:00,mfh,15.76
2023-12-22T03:46:00,mfh,16.00
2023-12-22T03:47:00,mfh,15.24
2023-12-22T03:48:00,mfh,15.27
2023-12-22T03:49:00,mfh,15.13
2023-12-22T03:50:00,mfh,15.84
2023-12-22T03:51:00,mfh,16.60
2023-12-22T03:52:00,mfh,16.77
2023-12-22T03:53:00,mfh,16.28
2023-12-22T03:54:00,mfh,15.99
2023-12-22T03:55:00,mfh,16.30
2023-12-22T03:56:00,mfh,16.45
2023-12-22T03:57:00,mfh,15.29
2023-12-22T03:58:00,mfh,16.07
2023-12-22T03:59:00,mfh,15.22
2023-12-22T04:00:00,mfh,15.95
2023-12-22T04:01:00,mfh,16.23
2023-12-22T04:02:00,mfh,16.35
2023-12-22T04:03:00,mfh,15.76
2023-12-22T04:04:00,mfh,15.70
2023-12-22T04:05:00,mfh,15.26
2023-12-22T04:06:00,mfh,14.83
2023-12-22T04:07:00,mfh,14.89
2023-12-22T04:08:00,mfh,14.89
2023-12-22T04:09:00,mfh,15.44
2023-12-22T04:10:00,mfh,16.75
2023-12-22T04:11:00,mfh,16.13
2023-12-22T04:12:00,mfh,15.58
2023-12-22T04:13:00,mfh,16.41
2023-12-22T04:14:00,mfh,15.87
2023-12-22T04:15:00,mfh,16.60
2023-12-22T04:16:00,mfh,15.01
2023-12-22T04:17:00,mfh,15.08
2023-12-22T04:18:00,mfh,15.43
2023-12-22T04:19:00,mfh,15.55
2023-12-22T04:20:00,mfh,15.62
2023-12-22T04:21:00,mfh,15.80
2023-12-22T04:22:00,mfh,15.58
2023-12-22T04:23:00,mfh,15.76
2023-12-22T04:24:00,mfh,15.78
2023-12-22T04:25:00,mfh,15.31
2023-12-22T04:26:00,mfh,14.95
2023-12-22T04:27:00,mfh,14.94
2023-12-22T04:28:00,mfh,16.03
2023-12-22T04:29:00,mfh,16.15
2023-12-22T04:30:00,mfh,15.55
2023-12-22T04:31:00,mfh,16.27
2023-12-22T04:32:00,mfh,15.78
2023-12-22T04:33:00,mfh,15.88
2023-12-22T04:34:00,mfh,15.96
2023-12-22T04:35:00,mfh,15.48
2023-12-22T04:36:00,mfh,15.44
2023-12-22T04:37:00,mfh,15.44
2023-12-22T04:38:00,mfh,16.73
2023-12-22T04:39:00,mfh,16.08
2023-12-22T04:40:00,mfh,16.76
2023-12-22T04:41:00,mfh,16.17
2023-12-22T04:42:00,mfh,15.95
2023-12-22T04:43:00,mfh,15.88
2023-12-22T04:44:00,mfh,15.09
2023-12-22T04:45:00,mfh,14.98
2023-12-22T04:46:00,mfh,14.98
2023-12-22T04:47:00,mfh,14.95
2023-12-22T04:48:00,mfh,15.53
2023-12-22T04:49:00,mfh,15.64
2023-12-22T04:50:00,mfh,15.69
2023-12-22T04:51:00,mfh,15.54
2023-12-22T04:52:00,mfh,15.57
2023-12-22T04:53:00,mfh,15.67
2023-12-22T04:54:00,mfh,14.93
2023-12-22T04:55:00,mfh,14.88
2023-12-22T04:56:00,mfh,14.93
2023-12-22T04:57:00,mfh,16.10
2023-12-22T04:58:00,mfh,16.11
2023-12-22T04:59:00,mfh,15.60
2023-12-22T05:00:00,mfh,15.93
2023-12-22T05:01:00,mfh,16.21
2023-12-22T05:02:00,mfh,15.84
2023-12-22T05:03:00,mfh,15.42
2023-12-22T05:04:00,mfh,15.37
2023-12-22T05:05:00,mfh,15.85
2023-12-22T05:06:00,mfh,16.37
2023-12-22T05:07:00,mfh,17.04
2023-12-22T05:08:00,mfh,16.53
2023-12-22T05:09:00,mfh,15.95
2023-12-22T05:10:00,mfh,16.27
2023-12-22T05:11:00,mfh,16.05
2023-12-22T05:12:00,mfh,15.25
2023-12-22T05:13:00,mfh,15.27
2023-12-22T05:14:00,mfh,15.96
2023-12-22T05:15:00,mfh,16.03
2023-12-22T05:16:00,mfh,15.98
2023-12-22T05:17:00,mfh,15.89
2023-12-22T05:18:00,mfh,15.89
2023-12-22T05:19:00,mfh,16.31
2023-12-22T05:20:00,mfh,15.90
2023-12-22T05:21:00,mfh,16.06
2023-12-22T05:22:00,mfh,15.26
2023-12-22T05:23:00,mfh,15.25
2023-12-22T05:24:00,mfh,15.23
2023-12-22T05:25:00,mfh,16.01
2023-12-22T05:26:00,mfh,16.08
2023-12-22T05:27:00,mfh,16.20
2023-12-22T05:28:00,mfh,16.44
2023-12-22T05:29:00,mfh,16.51
2023-12-22T05:30:00,mfh,17.23
2023-12-22T05:31:00,mfh,15.55
2023-12-22T05:32:00,mfh,15.52
2023-12-22T05:33:00,mfh,15.60
2023-12-22T05:34:00,mfh,16.63
2023-12-22T05:35:00,mfh,16.26
2023-12-22T05:36:00,mfh,16.23
2023-12-22T05:37:00,mfh,16.52
2023-12-22T05:38:00,mfh,16.05
2023-12-22T05:39:00,mfh,16.00
2023-12-22T05:40:00,mfh,16.04
2023-12-22T05:41:00,mfh,15.57
2023-12-22T05:42:00,mfh,15.37
2023-12-22T05:43:00,mfh,15.23
2023-12-22T05:44:00,mfh,16.06
2023-12-22T05:45:00,mfh,15.81
2023-12-22T05:46:00,mfh,16.55
2023-12-22T05:47:00,mfh,15.66
2023-12-22T05:48:00,mfh,15.77
2023-12-22T05:49:00,mfh,15.81
2023-12-22T05:50:00,mfh,15.18
2023-12-22T05:51:00,mfh,15.87
2023-12-22T05:52:00,mfh,15.95
2023-12-22T05:53:00,mfh,16.56
2023-12-22T05:54:00,mfh,16.73
2023-12-22T05:55:00,mfh,17.22
2023-12-22T05:56:00,mfh,16.94
2023-12-22T05:57:00,mfh,15.76
2023-12-22T05:58:00,mfh,15.82
2023-12-22T05:59:00,mfh,15.76
2023-12-22T06:00:00,mfh,15.17
2023-12-22T06:01:00,mfh,33.42
2023-12-22T06:02:00,mfh,33.86
2023-12-22T06:03:00,mfh,34.05
2023-12-22T06:04:00,mfh,34.11
2023-12-22T06:05:00,mfh,33.97
2023-12-22T06:06:00,mfh,33.96
2023-12-22T06:07:00,mfh,34.33
2023-12-22T06:08:00,mfh,34.66
2023-12-22T06:09:00,mfh,34.58
2023-12-22T06:10:00,mfh,34.34
2023-12-22T06:11:00,mfh,34.17
2023-12-22T06:12:00,mfh,33.93
2023-12-22T06:13:00,mfh,34.15
2023-12-22T06:14:00,mfh,34.22
2023-12-22T06:15:00,mfh,33.91
2023-12-22T06:16:00,mfh,33.82
2023-12-22T06:17:00,mfh,34.75
2023-12-22T06:18:00,mfh,34.02
2023-12-22T06:19:00,mfh,33.90
2023-12-22T06:20:00,mfh,34.11
2023-12-22T06:21:00,mfh,34.75
2023-12-22T06:22:00,mfh,34.03
2023-12-22T06:23:00,mfh,33.94
2023-12-22T06:24:00,mfh,33.71
2023-12-22T06:25:00,mfh,33.70
2023-12-22T06:26:00,mfh,33.71
2023-12-22T06:27:00,mfh,33.77
2023-12-22T06:28:00,mfh,33.91
2023-12-22T06:29:00,mfh,33.61
2023-12-22T06:30:00,mfh,33.56
2023-12-22T06:31:00,mfh,33.74
2023-12-22T06:32:00,mfh,33.99
2023-12-22T06:33:00,mfh,33.54
2023-12-22T06:34:00,mfh,33.53
2023-12-22T06:35:00,mfh,34.03
2023-12-22T06:36:00,mfh,33.92
2023-12-22T06:37:00,mfh,33.86
2023-12-22T06:38:00,mfh,33.89
2023-12-22T06:39:00,mfh,33.99
2023-12-22T06:40:00,mfh,33.87
2023-12-22T06:41:00,mfh,33.77
2023-12-22T06:42:00,mfh,33.80
2023-12-22T06:43:00,mfh,33.81
2023-12-22T06:44:00,mfh,33.82
2023-12-22T06:45:00,mfh,34.24
2023-12-22T06:46:00,mfh,34.17
2023-12-22T06:47:00,mfh,33.50
2023-12-22T06:48:00,mfh,33.20
2023-12-22T06:49:00,mfh,33.52
2023-12-22T06:50:00,mfh,33.41
2023-12-22T06:51:00,mfh,33.74
2023-12-22T06:52:00,mfh,33.76
2023-12-22T06:53:00,mfh,33.79
2023-12-22T06:54:00,mfh,33.81
2023-12-22T06:55:00,mfh,33.90
2023-12-22T06:56:00,mfh,34.17
2023-12-22T06:57:00,mfh,34.01
2023-12-22T06:58:00,mfh,33.97
2023-12-22T06:59:00,mfh,33.91
2023-12-22T07:00:00,mfh,34.06
2023-12-22T07:01:00,mfh,34.25
2023-12-22T07:02:00,mfh,33.53
2023-12-22T07:03:00,mfh,33.34
2023-12-22T07:04:00,mfh,33.27
2023-12-22T07:05:00,mfh,33.28
2023-12-22T07:06:00,mfh,32.46
2023-12-22T07:07:00,mfh,32.60
2023-12-22T07:08:00,mfh,32.66
2023-12-22T07:09:00,mfh,33.39
2023-12-22T07:10:00,mfh,33.36
2023-12-22T07:11:00,mfh,33.32
2023-12-22T07:12:00,mfh,33.46
2023-12-22T07:13:00,mfh,33.79
2023-12-22T07:14:00,mfh,33.66
2023-12-22T07:15:00,mfh,33.52
2023-12-22T07:16:00,mfh,33.40
2023-12-22T07:17:00,mfh,32.96
2023-12-22T07:18:00,mfh,33.36
2023-12-22T07:19:00,mfh,33.01
2023-12-22T07:20:00,mfh,32.73
2023-12-22T07:21:00,mfh,32.55
2023-12-22T07:22:00,mfh,32.49
2023-12-22T07:23:00,mfh,33.09
2023-12-22T07:24:00,mfh,33.05
2023-12-22T07:25:00,mfh,32.89
2023-12-22T07:26:00,mfh,33.10
2023-12-22T07:27:00,mfh,33.31
2023-12-22T07:28:00,mfh,33.28
2023-12-22T07:29:00,mfh,32.79
2023-12-22T07:30:00,mfh,32.92
2023-12-22T07:31:00,mfh,32.93
2023-12-22T07:32:00,mfh,33.26
2023-12-22T07:33:00,mfh,33.19
2023-12-22T07:34:00,mfh,33.00
2023-12-22T07:35:00,mfh,32.81
2023-12-22T07:36:00,mfh,33.82
2023-12-22T07:37:00,mfh,32.86
2023-12-22T07:38:00,mfh,32.91
2023-12-22T07:39:00,mfh,32.33
2023-12-22T07:40:00,mfh,32.23
2023-12-22T07:41:00,mfh,32.37
2023-12-22T07:42:00,mfh,33.05
2023-12-22T07:43:00,mfh,33.26
2023-12-22T07:44:00,mfh,33.33
2023-12-22T07:45:00,mfh,33.30
2023-12-22T07:46:00,mfh,33.28
2023-12-22T07:47:00,mfh,33.30
2023-12-22T07:48:00,mfh,33.51
2023-12-22T07:49:00,mfh,33.39
2023-12-22T07:50:00,mfh,33.43
2023-12-22T07:51:00,mfh,33.45
2023-12-22T07:52:00,mfh,33.44
2023-12-22T07:53:00,mfh,33.59
2023-12-22T07:54:00,mfh,33.57
2023-12-22T07:55:00,mfh,33.20
2023-12-22T07:56:00,mfh,32.81
2023-12-22T07:57:00,mfh,33.64
2023-12-22T07:58:00,mfh,33.51
2023-12-22T07:59:00,mfh,33.58
2023-12-22T08:00:00,mfh,33.51
2023-12-22T08:01:00,mfh,33.60
2023-12-22T08:02:00,mfh,33.63
2023-12-22T08:03:00,mfh,34.22
2023-12-22T08:04:00,mfh,33.52
2023-12-22T08:05:00,mfh,33.18
2023-12-22T08:06:00,mfh,33.31
2023-12-22T08:07:00,mfh,33.13
2023-12-22T08:08:00,mfh,33.15
2023-12-22T08:09:00,mfh,33.41
2023-12-22T08:10:00,mfh,33.35
2023-12-22T08:11:00,mfh,32.49
2023-12-22T08:12:00,mfh,32.65
2023-12-22T08:13:00,mfh,32.98
2023-12-22T08:14:00,mfh,32.87
2023-12-22T08:15:00,mfh,32.94
2023-12-22T08:16:00,mfh,33.32
2023-12-22T08:17:00,mfh,33.05
2023-12-22T08:18:00,mfh,33.36
2023-12-22T08:19:00,mfh,33.06
2023-12-22T08:20:00,mfh,33.02
2023-12-22T08:21:00,mfh,32.97
2023-12-22T08:22:00,mfh,33.03
2023-12-22T08:23:00,mfh,32.95
2023-12-22T08:24:00,mfh,32.26
2023-12-22T08:25:00,mfh,32.22
2023-12-22T08:26:00,mfh,32.81
2023-12-22T08:27:00,mfh,33.04
2023-12-22T08:28:00,mfh,33.02
2023-12-22T08:29:00,mfh,33.03
2023-12-22T08:30:00,mfh,33.11
2023-12-22T08:31:00,mfh,33.16
2023-12-22T08:32:00,mfh,34.11
2023-12-22T08:33:00,mfh,33.51
2023-12-22T08:34:00,mfh,33.94
2023-12-22T08:35:00,mfh,33.62
2023-12-22T08:36:00,mfh,33.60
2023-12-22T08:37:00,mfh,33.15
2023-12-22T08:38:00,mfh,32.22
2023-12-22T08:39:00,mfh,30.45
2023-12-22T08:40:00,mfh,30.81
2023-12-22T08:41:00,mfh,31.68
2023-12-22T08:42:00,mfh,30.39
2023-12-22T08:43:00,mfh,30.34
2023-12-22T08:44:00,mfh,30.34
2023-12-22T08:45:00,mfh,31.13
2023-12-22T08:46:00,mfh,31.02
2023-12-22T08:47:00,mfh,31.33
2023-12-22T08:48:00,mfh,31.14
2023-12-22T08:49:00,mfh,31.32
2023-12-22T08:50:00,mfh,31.51
2023-12-22T08:51:00,mfh,32.06
2023-12-22T08:52:00,mfh,31.69
2023-12-22T08:53:00,mfh,31.25
2023-12-22T08:54:00,mfh,31.64
2023-12-22T08:55:00,mfh,30.61
2023-12-22T08:56:00,mfh,30.56
2023-12-22T08:57:00,mfh,31.09
2023-12-22T08:58:00,mfh,31.22
2023-12-22T08:59:00,mfh,31.12
2023-12-22T09:00:00,mfh,30.93
2023-12-22T09:01:00,mfh,31.32
2023-12-22T09:02:00,mfh,30.91
2023-12-22T09:03:00,mfh,30.87
2023-12-22T09:04:00,mfh,30.85
2023-12-22T09:05:00,mfh,30.89
2023-12-22T09:06:00,mfh,30.86
2023-12-22T09:07:00,mfh,30.71
2023-12-22T09:08:00,mfh,32.80
2023-12-22T09:09:00,mfh,32.09
2023-12-22T09:10:00,mfh,32.14
2023-12-22T09:11:00,mfh,32.23
2023-12-22T09:12:00,mfh,32.99
2023-12-22T09:13:00,mfh,32.76
2023-12-22T09:14:00,mfh,33.16
2023-12-22T09:15:00,mfh,33.56
2023-12-22T09:16:00,mfh,33.19
2023-12-22T09:17:00,mfh,33.25
2023-12-22T09:18:00,mfh,33.22
2023-12-22T09:19:00,mfh,33.12
2023-12-22T09:20:00,mfh,32.75
2023-12-22T09:21:00,mfh,32.76
2023-12-22T09:22:00,mfh,32.21
2023-12-22T09:23:00,mfh,32.28
2023-12-22T09:24:00,mfh,33.17
2023-12-22T09:25:00,mfh,33.18
2023-12-22T09:26:00,mfh,33.01
2023-12-22T09:27:00,mfh,32.72
2023-12-22T09:28:00,mfh,33.24
2023-12-22T09:29:00,mfh,34.48
2023-12-22T09:30:00,mfh,34.27
2023-12-22T09:31:00,mfh,33.62
2023-12-22T09:32:00,mfh,42.45
2023-12-22T09:33:00,mfh,41.70
2023-12-22T09:34:00,mfh,42.05
2023-12-22T09:35:00,mfh,41.66
2023-12-22T09:36:00,mfh,40.87
2023-12-22T09:37:00,mfh,41.04
2023-12-22T09:38:00,mfh,41.76
2023-12-22T09:39:00,mfh,41.76
2023-12-22T09:40:00,mfh,42.50
2023-12-22T09:41:00,mfh,42.73
2023-12-22T09:42:00,mfh,42.81
2023-12-22T09:43:00,mfh,42.40
2023-12-22T09:44:00,mfh,44.89
2023-12-22T09:45:00,mfh,44.95
2023-12-22T09:46:00,mfh,44.25
2023-12-22T09:47:00,mfh,43.27
2023-12-22T09:48:00,mfh,40.12
2023-12-22T09:49:00,mfh,35.62
2023-12-22T09:50:00,mfh,35.49
2023-12-22T09:51:00,mfh,36.22
2023-12-22T09:52:00,mfh,36.57
2023-12-22T09:53:00,mfh,36.04
2023-12-22T09:54:00,mfh,36.82
2023-12-22T09:55:00,mfh,36.07
2023-12-22T09:56:00,mfh,36.06
2023-12-22T09:57:00,mfh,36.03
2023-12-22T09:58:00,mfh,35.96
2023-12-22T09:59:00,mfh,36.05
2023-12-22T10:00:00,mfh,36.01
2023-12-22T10:01:00,mfh,36.13
2023-12-22T10:02:00,mfh,35.73
2023-12-22T10:03:00,mfh,35.79
2023-12-22T10:04:00,mfh,35.27
2023-12-22T10:05:00,mfh,33.96
2023-12-22T10:06:00,mfh,34.93
2023-12-22T10:07:00,mfh,34.67
2023-12-22T10:08:00,mfh,33.76
2023-12-22T10:09:00,mfh,34.45
2023-12-22T10:10:00,mfh,34.19
2023-12-22T10:11:00,mfh,33.83
2023-12-22T10:12:00,mfh,34.01
2023-12-22T10:13:00,mfh,34.14
2023-12-22T10:14:00,mfh,34.11
2023-12-22T10:15:00,mfh,33.35
2023-12-22T10:16:00,mfh,32.86
2023-12-22T10:17:00,mfh,34.41
2023-12-22T10:18:00,mfh,33.80
2023-12-22T10:19:00,mfh,34.47
2023-12-22T10:20:00,mfh,33.81
2023-12-22T10:21:00,mfh,36.32
2023-12-22T10:22:00,mfh,36.17
2023-12-22T10:23:00,mfh,36.54
2023-12-22T10:24:00,mfh,36.51
2023-12-22T10:25:00,mfh,36.41
2023-12-22T10:26:00,mfh,36.69
2023-12-22T10:27:00,mfh,36.80
2023-12-22T10:28:00,mfh,36.74
2023-12-22T10:29:00,mfh,35.66
2023-12-22T10:30:00,mfh,35.69
2023-12-22T10:31:00,mfh,36.22
2023-12-22T10:32:00,mfh,36.34
2023-12-22T10:33:00,mfh,36.28
2023-12-22T10:34:00,mfh,33.75
2023-12-22T10:35:00,mfh,33.96
2023-12-22T10:36:00,mfh,33.77
2023-12-22T10:37:00,mfh,34.68
2023-12-22T10:38:00,mfh,33.69
2023-12-22T10:39:00,mfh,33.32
2023-12-22T10:40:00,mfh,32.10
2023-12-22T10:41:00,mfh,31.26
2023-12-22T10:42:00,mfh,31.57
2023-12-22T10:43:00,mfh,31.16
2023-12-22T10:44:00,mfh,31.69
2023-12-22T10:45:00,mfh,32.01
2023-12-22T10:46:00,mfh,31.91
2023-12-22T10:47:00,mfh,32.16
2023-12-22T10:48:00,mfh,32.03
2023-12-22T10:49:00,mfh,34.35
2023-12-22T10:50:00,mfh,33.57
2023-12-22T10:51:00,mfh,34.48
2023-12-22T10:52:00,mfh,33.96
2023-12-22T10:53:00,mfh,33.85
2023-12-22T10:54:00,mfh,33.94
2023-12-22T10:55:00,mfh,32.55
2023-12-22T10:56:00,mfh,31.38
2023-12-22T10:57:00,mfh,31.63
2023-12-22T10:58:00,mfh,32.45
2023-12-22T10:59:00,mfh,33.03
2023-12-22T11:00:00,mfh,31.83
2023-12-22T11:01:00,mfh,32.22
2023-12-22T11:02:00,mfh,31.66
2023-12-22T11:03:00,mfh,32.02
2023-12-22T11:04:00,mfh,33.21
2023-12-22T11:05:00,mfh,32.22
2023-12-22T11:06:00,mfh,31.86
2023-12-22T11:07:00,mfh,32.22
2023-12-22T11:08:00,mfh,32.36
2023-12-22T11:09:00,mfh,31.13
2023-12-22T11:10:00,mfh,31.40
2023-12-22T11:11:00,mfh,32.30
2023-12-22T11:12:00,mfh,32.37
2023-12-22T11:13:00,mfh,34.02
2023-12-22T11:14:00,mfh,34.02
2023-12-22T11:15:00,mfh,34.02
2023-12-22T11:16:00,mfh,33.67
2023-12-22T11:17:00,mfh,37.77
2023-12-22T11:18:00,mfh,41.86
2023-12-22T11:19:00,mfh,41.92
2023-12-22T11:20:00,mfh,46.06
2023-12-22T11:21:00,mfh,45.18
2023-12-22T11:22:00,mfh,44.95
2023-12-22T11:23:00,mfh,44.31
2023-12-22T11:24:00,mfh,44.30
2023-12-22T11:25:00,mfh,44.85
2023-12-22T11:26:00,mfh,44.68
2023-12-22T11:27:00,mfh,44.78
2023-12-22T11:28:00,mfh,44.79
2023-12-22T11:29:00,mfh,44.53
2023-12-22T11:30:00,mfh,45.12
2023-12-22T11:31:00,mfh,40.40
2023-12-22T11:32:00,mfh,40.82
2023-12-22T11:33:00,mfh,41.24
2023-12-22T11:34:00,mfh,40.69
2023-12-22T11:35:00,mfh,37.19
2023-12-22T11:36:00,mfh,36.50
2023-12-22T11:37:00,mfh,33.39
2023-12-22T11:38:00,mfh,33.29
2023-12-22T11:39:00,mfh,34.62
2023-12-22T11:40:00,mfh,33.92
2023-12-22T11:41:00,mfh,33.61
2023-12-22T11:42:00,mfh,33.67
2023-12-22T11:43:00,mfh,34.37
2023-12-22T11:44:00,mfh,34.38
2023-12-22T11:45:00,mfh,34.35
2023-12-22T11:46:00,mfh,34.38
2023-12-22T11:47:00,mfh,34.40
2023-12-22T11:48:00,mfh,34.33
2023-12-22T11:49:00,mfh,34.19
2023-12-22T11:50:00,mfh,34.23
2023-12-22T11:51:00,mfh,33.78
2023-12-22T11:52:00,mfh,33.66
2023-12-22T11:53:00,mfh,33.41
2023-12-22T11:54:00,mfh,34.10
2023-12-22T11:55:00,mfh,34.71
2023-12-22T11:56:00,mfh,34.39
2023-12-22T11:57:00,mfh,33.95
2023-12-22T11:58:00,mfh,33.77
2023-12-22T11:59:00,mfh,33.93
2023-12-22T12:00:00,mfh,33.91
2023-12-22T12:01:00,mfh,33.75
2023-12-22T12:02:00,mfh,33.49
2023-12-22T12:03:00,mfh,33.41
2023-12-22T12:04:00,mfh,33.09
2023-12-22T12:05:00,mfh,32.96
2023-12-22T12:06:00,mfh,31.97
2023-12-22T12:07:00,mfh,32.70
2023-12-22T12:08:00,mfh,32.75
2023-12-22T12:09:00,mfh,32.59
2023-12-22T12:10:00,mfh,32.54
2023-12-22T12:11:00,mfh,30.77
2023-12-22T12:12:00,mfh,30.74
2023-12-22T12:13:00,mfh,30.60
2023-12-22T12:14:00,mfh,30.67
2023-12-22T12:15:00,mfh,30.68
2023-12-22T12:16:00,mfh,30.64
2023-12-22T12:17:00,mfh,30.73
2023-12-22T12:18:00,mfh,30.87
2023-12-22T12:19:00,mfh,30.21
2023-12-22T12:20:00,mfh,30.42
2023-12-22T12:21:00,mfh,30.73
2023-12-22T12:22:00,mfh,31.63
2023-12-22T12:23:00,mfh,30.91
2023-12-22T12:24:00,mfh,30.88
2023-12-22T12:25:00,mfh,30.85
2023-12-22T12:26:00,mfh,30.64
2023-12-22T12:27:00,mfh,30.57
2023-12-22T12:28:00,mfh,30.71
2023-12-22T12:29:00,mfh,30.73
2023-12-22T12:30:00,mfh,30.67
2023-12-22T12:31:00,mfh,30.84
2023-12-22T12:32:00,mfh,30.14
2023-12-22T12:33:00,mfh,30.08
2023-12-22T12:34:00,mfh,31.15
2023-12-22T12:35:00,mfh,30.71
2023-12-22T12:36:00,mfh,30.84
2023-12-22T12:37:00,mfh,30.68
2023-12-22T12:38:00,mfh,30.56
2023-12-22T12:39:00,mfh,30.56
2023-12-22T12:40:00,mfh,30.58
2023-12-22T12:41:00,mfh,31.05
2023-12-22T12:42:00,mfh,31.37
2023-12-22T12:43:00,mfh,30.48
2023-12-22T12:44:00,mfh,30.90
2023-12-22T12:45:00,mfh,30.93
2023-12-22T12:46:00,mfh,31.06
2023-12-22T12:47:00,mfh,30.18
2023-12-22T12:48:00,mfh,30.18
2023-12-22T12:49:00,mfh,30.32
2023-12-22T12:50:00,mfh,30.86
2023-12-22T12:51:00,mfh,31.06
2023-12-22T12:52:00,mfh,32.60
2023-12-22T12:53:00,mfh,32.59
2023-12-22T12:54:00,mfh,33.16
2023-12-22T12:55:00,mfh,32.62
2023-12-22T12:56:00,mfh,32.65
2023-12-22T12:57:00,mfh,32.86
2023-12-22T12:58:00,mfh,32.68
2023-12-22T12:59:00,mfh,32.57
2023-12-22T13:00:00,mfh,31.95
2023-12-22T13:01:00,mfh,31.84
2023-12-22T13:02:00,mfh,32.93
2023-12-22T13:03:00,mfh,32.55
2023-12-22T13:04:00,mfh,32.55
2023-12-22T13:05:00,mfh,32.53
2023-12-22T13:06:00,mfh,32.55
2023-12-22T13:07:00,mfh,32.59
2023-12-22T13:08:00,mfh,32.95
2023-12-22T13:09:00,mfh,32.72
2023-12-22T13:10:00,mfh,32.98
2023-12-22T13:11:00,mfh,33.07
2023-12-22T13:12:00,mfh,32.84
2023-12-22T13:13:00,mfh,32.94
2023-12-22T13:14:00,mfh,32.82
2023-12-22T13:15:00,mfh,32.21
2023-12-22T13:16:00,mfh,32.12
2023-12-22T13:17:00,mfh,32.64
2023-12-22T13:18:00,mfh,32.73